Find Starlink 32555

NORAD ID: 61918 Int'l Des: 2024-207 Owner: SPXS Country: US Constellation: starlink operational
LEOCIRCULAR

当前视图

正在加载3D地球...

About Starlink 32555

Starlink 32555 (NORAD 61918) is a starlink constellation satellite (v2 mini) launched Nov 11, 2024 by SPXS of US. It operates in LEO, CIRCULAR orbit with a mass of 730.00 kg.

即将过境

Passes for default location (London). Set your location on the main map for personalized predictions.

高度历史

Loading altitude history...

两行轨道根数

1 61918U 24207G 26263.32184308 .00008047 00000-0 30152-3 0 9991
2 61918 42.9988 266.4402 0001550 280.1505 79.9171 15.27589241104444
Epoch: Sep 20, 2026 • Age: 23 hours

当前状态

高度 484.2 km
远地点 / 近地点 N/A
速度 7.63 km/s
星下点 28.34°N, 48.43°W
发射日期 Nov 11, 2024
运行时间 1.8 years
类型 internet

技术详情

分类 Payload
质量 730.00 kg
干质量 700.00 kg
长度 0.30 m
跨度 29.00 m
形状 ? Box + pan
制造商 SPXS
平台类型 Starlink V2M
阶段状态 In Orbit
所有者/国家 SPXS/US

Most Searched